Content
SEND FEEDBACK

Daily
Averages
Monthly
Summary
Brazil

GUARULHOS, SÃO PAULO


Home > South America > Brazil > São Paulo
Elevation: 2460 feet     Latitude: 23 26S     Longitude: 046 28W

WEATHER
 
SELECT A DAY
Number of Records: 180,637;   Date Range: 6/30/96 - 9/30/14
 
SHARE

PRINT THIS DATA

[ ← Previous Day ]
WEATHER ALMANAC - JANUARY 23, 2013
[ Next Day → ]
[ °C ]   °F
Weather ElementAverageHighLow
Temperature70.3 °F82.4 °F (3:00 pm)66.2 °F (1:00 am)
Dewpoint63.3 °F68 °F (4:35 pm)60.8 °F (1:00 am)
Humidity79.4 %94 % (6:00 pm)54 % (2:00 pm)
Barometer30.07 in30.15 in (1:00 am)30.01 in (4:00 pm)
Wind Speed7 mph11.5 mph (4:35 pm)
Wind Gust23 mph (4:35 pm)
Weather ElementAverage
Visibility5 mi
Wind DirectionESE (123.3 °)

Weather ElementTotal
Precipitation---
Cooling Degree Days9.3 (Base 65)
Growing Degree Days24.3 (Base 50)
Averaged from 30 records on January 23, 2013
WEATHER CONDITIONS BREAKOUT
WIND DIRECTION BREAKOUT
WEATHER BY HOUR - JANUARY 23, 2013
[ °C ]   °F
Local TimeTemperatureDewpointHumidityBarometerVisibilityWind DirectionWind SpeedGust SpeedPrecipitationEventsConditions
1:00 AM66.2 °F60.8 °F83 %30.15 in6.2 miSE (130°)6.9 mphMostly Cloudy
2:00 AM66.2 °F60.8 °F83 %30.12 in6.2 miESE (120°)6.9 mphMostly Cloudy
3:00 AM66.2 °F60.8 °F83 %30.12 in6.2 miESE (120°)5.8 mphMostly Cloudy
4:00 AM66.2 °F60.8 °F83 %30.09 in6.2 miESE (120°)5.8 mphMostly Cloudy
5:00 AM66.2 °F60.8 °F83 %30.09 in6.2 miSE (130°)4.6 mphMostly Cloudy
6:00 AM66.2 °F60.8 °F83 %30.09 in6.2 miEast (90°)5.8 mphMostly Cloudy
7:00 AM66.2 °F60.8 °F83 %30.12 in6.2 miEast (80°)8.1 mphMostly Cloudy
8:00 AM66.2 °F60.8 °F83 %30.12 in6.2 miEast (80°)9.2 mphMostly Cloudy
8:20 AM66.2 °F62.6 °F88 %30.12 in6.2 miEast (80°)10.4 mphMostly Cloudy
9:00 AM68.0 °F60.8 °F78 %30.12 in6.2 miEast (80°)9.2 mphMostly Cloudy
10:00 AM69.8 °F62.6 °F78 %30.15 in6.2 miENE (60°)10.4 mphMostly Cloudy
11:00 AM73.4 °F60.8 °F65 %30.12 in6.2 miEast (80°)10.4 mphScattered Clouds
12:00 PM75.2 °F60.8 °F61 %30.12 in6.2 miEast (80°)8.1 mphScattered Clouds
1:00 PM77.0 °F60.8 °F57 %30.09 in6.2 miEast (100°)5.8 mphScattered Clouds
2:00 PM78.8 °F60.8 °F54 %30.06 in6.2 miEast (90°)5.8 mphMostly Cloudy
3:00 PM82.4 °F64.4 °F54 %30.04 in6.2 miCalmMostly Cloudy
4:00 PM77.0 °F64.4 °F65 %30.01 in6.2 miSE (140°)8.1 mphThunderstormThunderstorm
4:25 PM75.2 °F66.2 °F73 %30.01 in2.5 miWSW (250°)10.4 mphRain-ThunderstormThunderstorms and Rain
4:26 PM75.2 °F66.2 °F73 %30.01 in2.5 miWSW (250°)10.4 mphRain-ThunderstormThunderstorms and Rain
4:28 PM75.2 °F66.2 °F73 %30.01 in2.5 miWSW (250°)10.4 mphRain-ThunderstormThunderstorms and Rain
4:35 PM71.6 °F68.0 °F88 %30.04 in1.9 miWSW (240°)11.5 mph23.0 mphRain-ThunderstormHeavy Thunderstorms and Rain
5:00 PM69.8 °F66.2 °F88 %30.04 in1.9 miSSW (210°)4.6 mphRain-ThunderstormThunderstorms and Rain
5:20 PM69.8 °F66.2 °F88 %30.04 in3.1 miSSW (210°)4.6 mphRain-ThunderstormLight Thunderstorms and Rain
6:00 PM68.0 °F66.2 °F94 %30.04 in3.1 miESE (120°)3.5 mphRainLight Rain
6:30 PM68.0 °F66.2 °F94 %30.04 in6.2 miSE (130°)4.6 mphMostly Cloudy
7:00 PM68.0 °F64.4 °F88 %30.04 in6.2 miEast (100°)5.8 mphMostly Cloudy
8:00 PM68.0 °F64.4 °F88 %30.04 in3.1 miENE (60°)5.8 mphMostly Cloudy
9:00 PM68.0 °F64.4 °F88 %30.04 in4.3 miESE (110°)5.8 mphMostly Cloudy
10:00 PM68.0 °F64.4 °F88 %30.06 in4.3 miESE (110°)5.8 mphMostly Cloudy
11:00 PM66.2 °F64.4 °F94 %30.06 in3.1 miEast (80°)4.6 mphMostly Cloudy
Hourly data recorded from SBGR, located miles away from Guarulhos, São Paulo







STORIES FROM OUR PARTNERS